Sigfox identifier Datetime Temperature Humidity SNR
003BA527 2018-10-09 07:55:19 20.7 39 18.1
003BA527 2018-10-09 05:39:53 20.7 38 20.2
003BA527 2018-10-09 01:09:10 20.7 38 20.3
003BA527 2018-10-09 00:01:24 20.7 37 20.2
003BA527 2018-10-08 22:53:48 20.7 37 20.2
003BA527 2018-10-08 21:46:06 20.7 37 20.2
003BA527 2018-10-08 20:38:24 20.7 37 20.2
003BA527 2018-10-08 19:30:41 20.7 37 20.2
003BA527 2018-10-08 18:22:55 20.7 37 20.2
003BA527 2018-10-08 17:15:09 20.7 36 20.2
003BA527 2018-10-08 10:28:50 20.5 35 20.2
003BA527 2018-10-08 09:21:04 20.4 35 20.1
003BA527 2018-10-08 08:13:18 20.5 36 20.2
003BA527 2018-10-08 07:05:34 20.5 36 20.1
003BA527 2018-10-08 05:57:49 20.5 37 20.1
003BA527 2018-10-08 04:50:03 20.5 37 20
003BA527 2018-10-08 03:42:17 20.5 37 20.1
003BA527 2018-10-08 02:34:28 20.5 37 20.1
003BA527 2018-10-08 01:26:43 20.5 38 20.1
003BA527 2018-10-08 00:18:58 20.5 38 20
003BA527 2018-10-07 23:11:14 20.5 38 20.1
003BA527 2018-10-07 22:03:30 20.7 38 20
003BA527 2018-10-07 20:55:47 20.6 39 18
003BA527 2018-10-07 19:48:03 20.7 39 18.2
003BA527 2018-10-07 18:40:19 20.7 39 18.2
003BA527 2018-10-07 17:32:32 20.7 39 18.2
003BA527 2018-10-07 16:24:51 20.6 39 18.1
003BA527 2018-10-07 15:17:03 20.6 39 18.1
003BA527 2018-10-07 14:09:23 20.7 39 18.4
003BA527 2018-10-07 13:01:37 20.6 39 18.4
003BA527 2018-10-07 11:53:56 20.7 39 18.4
003BA527 2018-10-07 10:46:12 20.7 39 18.4
003BA527 2018-10-07 09:38:28 20.7 39 18.6
003BA527 2018-10-07 08:30:42 20.7 39 18.6
003BA527 2018-10-07 07:22:56 20.7 39 18.6
003BA527 2018-10-07 06:15:11 20.7 40 18.6
003BA527 2018-10-07 05:07:25 20.7 40 18.9
003BA527 2018-10-07 03:59:44 20.7 40 18.8
003BA527 2018-10-07 02:51:52 20.7 40 18.8
003BA527 2018-10-07 01:44:04 20.8 40 18.8
003BA527 2018-10-07 00:36:16 20.8 40 19
003BA527 2018-10-06 23:28:31 20.9 40 19
003BA527 2018-10-06 22:20:44 20.9 40 18.8
003BA527 2018-10-06 21:12:55 20.9 40 18.9
003BA527 2018-10-06 20:05:04 21 40 19
003BA527 2018-10-06 18:57:12 21 40 19.2
003BA527 2018-10-06 17:49:22 21 40 19.4
003BA527 2018-10-06 16:41:33 21 40 19.4
003BA527 2018-10-06 15:33:45 21 40 19.4
003BA527 2018-10-06 14:25:58 21 40 16
003BA527 2018-10-06 13:18:12 21 40 16.1
003BA527 2018-10-06 12:10:29 21 40 15.9
003BA527 2018-10-06 11:02:36 21 40 16.1
003BA527 2018-10-06 09:54:46 21 41 15.7
003BA527 2018-10-06 08:46:58 21 41 15.9
003BA527 2018-10-06 07:39:13 21 41 16.2
003BA527 2018-10-06 06:31:24 21.1 41 16.5
003BA527 2018-10-06 05:23:34 21.2 41 16
003BA527 2018-10-06 04:15:50 21.2 42 16
003BA527 2018-10-06 03:08:05 21.2 42 16.3
003BA527 2018-10-06 02:00:20 21.2 42 16.3
003BA527 2018-10-06 00:52:34 21.4 42 14.9
003BA527 2018-10-05 23:44:48 21.4 42 15.5
003BA527 2018-10-05 22:37:02 21.5 43 16.2
003BA527 2018-10-05 21:29:17 21.6 43 17
003BA527 2018-10-05 20:21:28 21.7 43 15.7
003BA527 2018-10-05 19:13:40 21.9 43 16.5
003BA527 2018-10-05 18:05:50 22 44 17.1
003BA527 2018-10-05 16:57:58 22 52 0